www.pogodaiklimat.ru

ПОГОДА в Ильичёвске

  • Прогноз погоды в Ильичёвске
  • Монитор погоды в Ильичёвске
  • Климат города

АРХИВ ПОГОДЫ в Ильичёвске

Время (UTC), дата Ветер
(напр.,м/с)
 
Видим.   Явления Облачность Т
(С)
Тd
(С)
f
(%)
Тe
(С)
Тes
(С)
Комфортность P
(гПа)
Po
(гПа)
Тmin
(С)
Tmax
(С)
R
(мм)
S
(см)
03 11.01 СВ 8 н/о 10 баллов -4.2 -5.7 89 -13 1020.0 1013.3
06 11.01 СВ 8 1000 м сильный снег {метель} 10/10 480 м
[Frnb Ns]
-1.6 -2.4 94 -10 -10 1016.3 1016.0 -6.0 2 6
09 11.01 В 6 н/о в посл. час ливневой снег н/о +1.1 +0.8 98 -5 1017.3 1010.7
12 11.01 Ю 5 н/о 7 баллов +2.0 +1.7 98 -4 1017.2 1010.7 6.0
15 11.01 Ю 4 н/о 9 баллов +0.2 -1.5 88 -5 -5 1017.3 1010.7
18 11.01 Ю 3 н/о 9 баллов -2.4 -3.2 94 -8 -8 1017.3 1010.7 6.0
21 11.01 ЮЗ 3 н/о 7 баллов -4.4 -6.4 86 -10 -10 1017.4 1010.7
00 12.01 Ю 2 10 км 10/0
[As op]
-4.0 -5.9 87 -8 -8 1015.2 1015.0
03 12.01 Ю 1 н/о 9 баллов -3.6 -5.4 87 -6 -6 1013.4 1006.7
06 12.01 Ю 1 н/о 7 баллов -4.3 -5.8 89 -7 -7 1012.0 1005.3
09 12.01 ЮЗ 2 н/о 3 балла -4.8 -8.4 76 -9 -7 1013.4 1006.7
12 12.01 З 3 15 км 3/0
[Ci sp]
-3.6 -8.4 69 -9 -7 1009.8 1010.0
15 12.01 З 1 н/о ясно -5.2 -10.5 66 -7 -7 1013.4 1006.7
18 12.01 З 2 н/о ясно -6.7 -10.0 77 -11 -11 1014.7 1008.0
21 12.01 З 2 н/о 7 баллов -7.0 -9.1 85 -11 -11 1016.1 1009.3
00 13.01 З 2 н/о 7 баллов -5.8 -8.4 82 -10 -10 1017.4 1010.7
03 13.01 3 н/о 8 баллов -4.0 -7.3 78 1017.4 1010.7
06 13.01 З 2 н/о ясно -3.9 -7.2 78 -8 -8 1017.4 1010.7
09 13.01 З 2 н/о ясно -1.8 -9.2 57 -5 -2 1018.6 1012.0
12 13.01 Ю 3 30 км 8/3 600 м
[Sc Ac trans Ci fib]
+1.6 -3.9 67 -2 -2 1014.2 1014.0
15 13.01 Ю 5 н/о 7 баллов +2.6 -0.7 79 -3 -3 1015.8 1009.3
18 13.01 Ю 5 н/о 7 баллов +2.8 -0.1 81 -2 -2 1013.2 1006.7
21 13.01 Ю 6 н/о 4 балла +3.0 +0.9 86 -3 -3 1010.5 1004.0
00 14.01 Ю 6 н/о 9 баллов +3.4 +1.6 88 -2 -2 1009.2 1002.7
03 14.01 Ю 5 н/о 9 баллов +3.6 +1.8 88 -2 -2 1006.9 1000.5
06 14.01 Ю 5 н/о 9 баллов +4.0 +1.7 85 -1 -1 1005.1 998.7
09 14.01 Ю 5 н/о 9 баллов +4.2 +2.2 87 -1 -1 1005.1 998.7
12 14.01 Ю 5 н/о 9 баллов +4.6 +2.5 86 -0 -0 1003.7 997.3
15 14.01 Ю 6 н/о 7 баллов +4.2 +2.7 90 -1 -1 1005.1 998.7
18 14.01 Ю 2 н/о 7 баллов +3.2 +0.6 83 0 0 1006.4 1000.0
21 14.01 З 1 н/о 9 баллов +2.8 +0.4 84 +1 +1 1009.2 1002.7
00 15.01 З 2 н/о 9 баллов +2.0 -0.3 85 -1 -1 1010.5 1004.0
03 15.01 СЗ 2 н/о 7 баллов +2.2 -0.9 80 -1 -1 1011.8 1005.3
06 15.01 СЗ 1 н/о 7 баллов +1.2 -0.7 87 -1 -1 1015.9 1009.3
09 15.01 СЗ 2 н/о 3 балла +2.6 -1.9 72 -0 +2 1017.2 1010.7
12 15.01 СЗ 3 26 км 4/0
[Ci]
+4.2 -2.6 61 +1 +2 1016.4 1016.0
15 15.01 СЗ 2 н/о ясно +2.2 -1.8 75 -1 -1 1019.9 1013.3
18 15.01 СЗ 3 н/о ясно -0.4 -1.5 92 -5 -5 1022.6 1016.0
21 15.01 СЗ 1 н/о дымка ясно -3.2 -4.2 93 -6 1024.0 1017.3
00 16.01 СЗ 1 4000 м дымка ясно -2.6 -3.6 93 -5 -5 1022.9 1023.0
03 16.01 СЗ 2 н/о дымка ясно -3.2 -4.9 88 -7 1025.4 1018.7
06 16.01 СВ 2 н/о ясно -1.2 -2.5 91 -5 -5 1025.4 1018.7
09 16.01 СВ 2 н/о ясно 0.0 -1.7 88 -4 -1 1025.3 1018.7
12 16.01 СВ 3 20 км ясно +0.4 -1.9 85 -4 -2 1023.5 1024.0
15 16.01 СВ 2 н/о 3 балла +0.2 -1.2 90 -3 -3 1025.3 1018.7
18 16.01 СВ 5 н/о ясно +0.1 -2.6 82 -6 -6 1026.6 1020.0
21 16.01 СВ 4 н/о 6 баллов -0.4 -1.5 92 -6 -6 1028.0 1021.3
00 17.01 СВ 4 н/о 5 баллов -1.0 -2.4 90 -7 -7 1028.0 1021.3
03 17.01 СВ 3 н/о 7 баллов -2.0 -4.5 83 -7 -7 1028.0 1021.3
06 17.01 СВ 8 н/о 8 баллов -1.8 -3.7 87 -10 -10 1029.4 1022.7
09 17.01 СВ 8 н/о 7 баллов -1.4 -5.1 76 -9 -9 1030.7 1024.0
12 17.01 СВ 8 22 км 8/4 600 м
[Sc Ac trans Cc]
+0.5 -4.2 71 -7 -6 1028.0 1028.0
15 17.01 СВ 8 н/о 7 баллов -0.4 -4.8 72 -8 -8 1032.0 1025.3
18 17.01 СВ 8 н/о 7 баллов -2.0 -5.5 77 -10 -10 1032.0 1025.3
21 17.01 СВ 8 н/о 7 баллов -1.8 -5.1 78 -10 -10 1032.0 1025.3
00 18.01 СВ 8 10 км 5/5 600 м
[St]
-3.8 -7.1 78 -12 -12 1031.5 1032.0

 

Местоположение метеостанции Ильичевск (Одесская область, Украина): широта 46.40 долгота 30.70 высота над уровнем моря 52 м.

В архиве по умолчанию представлена погода в Ильичёвске за последнюю неделю. Архивные данные за месяц целиком и за предыдущие месяцы, начиная с января 2011 года, Вы можете получить, выбрав интересующий диапазон дат из раскрывающегося списка и нажав кнопку "Ввод!".

Внимание! Время в таблицах - всемирное. Для получения местного времени необходимо прибавить поправку, которая в Ильичёвске равна 2 ч.

Ветер - указаны скорость ветра в м/с - средняя за 10 мин, порывы в срок и между сроками (в фигурных скобках) и направление, откуда дует ветер: С - северный, СВ - северо-восточный, В - восточный, ЮВ - юго-восточный, Ю - южный, ЮЗ - юго-западный, З - западный, СЗ - северо-западный.
Видимость - горизонтальная дальность видимости в метрах или километрах. При видимости от 1 до 10 км при отсутствии осадков обычно наблюдается дымка, при ухудшении видимости до 1 км и менее - туман. В сухую погоду видимость может ухудшаться дымом, пылью или мглою.
Явления - указаны атмосферные явления, наблюдавшиеся в срок или в последний час перед сроком; фигурными скобками обозначены явления, наблюдавшиеся между сроками (за 1-3 часа до срока); квадратными скобками обозначены град или гололедные отложения с указанием их диаметра в мм.
Облачность - указаны через наклонную черту общая и нижняя облачность в баллах и высота нижней границы облаков в метрах; квадратными скобками обозначены формы облаков: Ci - перистые, Cs - перисто-слоистые, Cc - перисто-кучевые, Ac - высококучевые, As - высокослоистые, Sc - слоисто-кучевые, Ns - слоисто-дождевые, Cu - кучевые, Cb - кучево-дождевые. Подробнее классификацию облаков см. в Атласе облаков (PDF).
T - Температура воздуха - температура, измеренная на высоте 2 м над землей.
Td - Температура точки росы - температура, при понижении до которой содержащийся в воздухе водяной пар достигнет насыщения.
f - Относительная влажность воздуха - влажноcть воздуха, измеренная на высоте 2 м над землей.
Te - Эффективная температура - температура, которую ощущает одетый по сезону человек в тени. Характеристика душности погоды. При расчете учитывается влияние влажности воздуха и скорости ветра на теплоощущения человека.
Tes - Эффективная температура на солнце - температура, которую ощущает человек, с поправкой на солнечный нагрев. Характеристика знойности погоды. Зависит от высоты солнца над горизонтом, облачности и скорости ветра. Ночью, в пасмурную погоду, а также при ветре 12 м/с и более поправка равна нулю.
P - Атмосферное давление - приведенное к уровню моря атмосферное давление.
Po - Атмосферное давление - измеренное на уровне метеостанции атмосферное давление.
Tmin - Минимальная температура - минимум температуры воздуха на высоте 2 м над землей.
Tmax - Максимальная температура - максимум температуры воздуха на высоте 2 м над землей.
R - Количество осадков - Количество выпавших осадков, мм. При наведении курсора мыши на число - период времени, за который выпало указанное количество осадков.
S - Снежный покров - Высота снежного покрова, см. При наведении курсора мыши на число - состояние снежного покрова и степень покрытия местности в баллах.